| time (UTC) | temp C | wind direction | speed KPH | gust KPH | rain 1hr cm | rain 24hr cm | rain mn cm | humidity % | barometer mb |
| 20260509064529 | 11 | 227 | 1.6 | 11.3 | 0.00 | 0.00 | 0.00 | 60 | 1004.5 |
| 20260509063036 | 10 | 203 | 3.2 | 17.7 | 0.00 | 0.00 | 0.00 | 57 | 1004.7 |
| 20260509061529 | 10 | 188 | 0.0 | 1.6 | 0.00 | 0.00 | 0.00 | 44 | 1004.6 |
| 20260509060030 | 10 | 0 | 0.0 | 4.8 | 0.00 | 0.00 | 0.00 | 41 | 1004.9 |
| 20260509054535 | 10 | 0 | 0.0 | 6.4 | 0.00 | 0.00 | 0.00 | 40 | 1005.0 |
| 20260509053047 | 10 | 0 | 0.0 | 1.6 | 0.00 | 0.00 | 0.00 | 39 | 1005.0 |
| 20260509051529 | 10 | 0 | 0.0 | 0.0 | 0.00 | 0.00 | 0.00 | 39 | 1005.0 |
| 20260509050033 | 10 | 0 | 0.0 | 1.6 | 0.00 | 0.00 | 0.00 | 40 | 1005.0 |
| 20260509044528 | 9 | 0 | 0.0 | 3.2 | 0.00 | 0.00 | 0.00 | 41 | 1005.2 |
| 20260509043040 | 9 | 0 | 0.0 | 0.0 | 0.00 | 0.00 | 0.00 | 41 | 1005.3 |
| 20260509041528 | 9 | 0 | 0.0 | 0.0 | 0.00 | 0.00 | 0.00 | 41 | 1005.5 |
| 20260509040034 | 9 | 0 | 0.0 | 0.0 | 0.00 | 0.00 | 0.00 | 41 | 1005.6 |
| 20260509034528 | 9 | 0 | 0.0 | 3.2 | 0.00 | 0.00 | 0.00 | 40 | 1005.8 |
| 20260509033030 | 10 | 161 | 0.0 | 3.2 | 0.00 | 0.00 | 0.00 | 41 | 1005.8 |
| 20260509031531 | 10 | 0 | 0.0 | 0.0 | 0.00 | 0.00 | 0.00 | 41 | 1006.0 |
| 20260509030028 | 10 | 0 | 0.0 | 0.0 | 0.00 | 0.00 | 0.00 | 40 | 1006.1 |
| 20260509024527 | 11 | 0 | 0.0 | 0.0 | 0.00 | 0.00 | 0.00 | 38 | 1006.4 |
| 20260509023028 | 11 | 0 | 0.0 | 0.0 | 0.00 | 0.00 | 0.00 | 36 | 1006.5 |
| 20260509021530 | 11 | 0 | 0.0 | 0.0 | 0.00 | 0.00 | 0.00 | 35 | 1006.5 |
| 20260509020031 | 12 | 0 | 0.0 | 1.6 | 0.00 | 0.00 | 0.00 | 35 | 1006.3 |
| 20260509014531 | 12 | 0 | 0.0 | 1.6 | 0.00 | 0.00 | 0.00 | 34 | 1006.4 |
| 20260509013031 | 13 | 0 | 0.0 | 0.0 | 0.00 | 0.00 | 0.00 | 31 | 1006.4 |
| 20260509011530 | 13 | 0 | 0.0 | 0.0 | 0.00 | 0.00 | 0.00 | 30 | 1006.2 |
| 20260509010036 | 14 | 0 | 0.0 | 3.2 | 0.00 | 0.00 | 0.00 | 28 | 1006.2 |
| 20260509004530 | 15 | 0 | 0.0 | 4.8 | 0.00 | 0.00 | 0.00 | 27 | 1006.3 |
| 20260509003034 | 15 | 193 | 0.0 | 8.0 | 0.00 | 0.00 | 0.00 | 27 | 1006.4 |
| 20260509001531 | 16 | 0 | 0.0 | 4.8 | 0.00 | 0.00 | 0.00 | 26 | 1006.4 |
| 20260509000030 | 16 | 230 | 1.6 | 11.3 | 0.00 | 0.00 | 0.00 | 26 | 1006.7 |
| 20260508234530 | 16 | 271 | 1.6 | 12.9 | 0.00 | 0.00 | 0.00 | 26 | 1006.8 |
| 20260508233034 | 16 | 240 | 1.6 | 14.5 | 0.00 | 0.00 | 0.00 | 26 | 1006.9 |
| 20260508231530 | 17 | 288 | 3.2 | 11.3 | 0.00 | 0.00 | 0.00 | 26 | 1006.9 |
| 20260508230028 | 17 | 219 | 8.0 | 16.1 | 0.00 | 0.00 | 0.00 | 25 | 1006.9 |
| 20260508224528 | 17 | 234 | 1.6 | 12.9 | 0.00 | 0.00 | 0.00 | 25 | 1006.9 |
| 20260508223032 | 17 | 265 | 3.2 | 14.5 | 0.00 | 0.00 | 0.00 | 26 | 1006.9 |
| 20260508221532 | 17 | 300 | 1.6 | 14.5 | 0.00 | 0.00 | 0.00 | 25 | 1007.0 |
| 20260508220027 | 18 | 278 | 3.2 | 19.3 | 0.00 | 0.00 | 0.00 | 25 | 1006.9 |
| 20260508214534 | 18 | 281 | 3.2 | 16.1 | 0.00 | 0.00 | 0.00 | 24 | 1006.9 |
| 20260508213028 | 18 | 275 | 3.2 | 14.5 | 0.00 | 0.00 | 0.00 | 24 | 1006.9 |
| 20260508211531 | 19 | 272 | 1.6 | 4.8 | 0.00 | 0.00 | 0.00 | 23 | 1007.2 |
| 20260508210034 | 20 | 273 | 6.4 | 14.5 | 0.00 | 0.00 | 0.00 | 23 | 1007.2 |
| 20260508204536 | 20 | 240 | 6.4 | 16.1 | 0.00 | 0.00 | 0.00 | 22 | 1007.4 |
| 20260508203034 | 20 | 275 | 1.6 | 12.9 | 0.00 | 0.00 | 0.00 | 24 | 1007.5 |
| 20260508201531 | 20 | 214 | 1.6 | 12.9 | 0.00 | 0.00 | 0.00 | 23 | 1007.6 |
| 20260508200033 | 19 | 261 | 4.8 | 19.3 | 0.00 | 0.00 | 0.00 | 24 | 1007.9 |
| 20260508194531 | 19 | 279 | 1.6 | 11.3 | 0.00 | 0.00 | 0.00 | 25 | 1008.0 |
| 20260508193030 | 18 | 290 | 6.4 | 16.1 | 0.00 | 0.00 | 0.00 | 24 | 1008.2 |
| 20260508191532 | 18 | 282 | 4.8 | 12.9 | 0.00 | 0.00 | 0.00 | 23 | 1008.1 |
| 20260508190029 | 18 | 334 | 1.6 | 16.1 | 0.00 | 0.00 | 0.00 | 26 | 1008.2 |
| 20260508184528 | 18 | 296 | 4.8 | 14.5 | 0.00 | 0.00 | 0.00 | 25 | 1008.5 |
| 20260508183030 | 18 | 302 | 4.8 | 14.5 | 0.00 | 0.00 | 0.00 | 26 | 1008.6 |
| 20260508181540 | 18 | 345 | 1.6 | 14.5 | 0.00 | 0.00 | 0.00 | 27 | 1008.9 |
| 20260508180030 | 18 | 263 | 3.2 | 14.5 | 0.00 | 0.00 | 0.00 | 27 | 1009.0 |
| 20260508174537 | 18 | 190 | 4.8 | 12.9 | 0.00 | 0.00 | 0.00 | 28 | 1009.2 |
| 20260508173029 | 17 | 273 | 3.2 | 14.5 | 0.00 | 0.00 | 0.00 | 29 | 1009.4 |
| 20260508171537 | 17 | 282 | 3.2 | 14.5 | 0.00 | 0.00 | 0.00 | 30 | 1009.7 |
| 20260508170028 | 16 | 248 | 3.2 | 17.7 | 0.00 | 0.00 | 0.00 | 30 | 1009.9 |
| 20260508164530 | 16 | 254 | 4.8 | 14.5 | 0.00 | 0.00 | 0.00 | 27 | 1010.2 |
| 20260508163029 | 16 | 196 | 4.8 | 12.9 | 0.00 | 0.00 | 0.00 | 29 | 1010.4 |
| 20260508161544 | 16 | 243 | 6.4 | 12.9 | 0.00 | 0.00 | 0.00 | 31 | 1010.4 |
| 20260508160028 | 16 | 203 | 4.8 | 20.9 | 0.00 | 0.00 | 0.00 | 31 | 1010.5 |
| 20260508154529 | 16 | 47 | 1.6 | 14.5 | 0.00 | 0.00 | 0.00 | 35 | 1010.4 |
| 20260508153049 | 16 | 248 | 1.6 | 12.9 | 0.00 | 0.00 | 0.00 | 37 | 1010.7 |
| 20260508151527 | 15 | 136 | 1.6 | 12.9 | 0.00 | 0.00 | 0.00 | 39 | 1010.6 |
| 20260508150028 | 15 | 0 | 1.6 | 12.9 | 0.00 | 0.00 | 0.00 | 37 | 1011.0 |
| 20260508144532 | 15 | 211 | 1.6 | 14.5 | 0.00 | 0.00 | 0.00 | 40 | 1011.0 |
| 20260508143045 | 13 | 199 | 6.4 | 16.1 | 0.00 | 0.00 | 0.00 | 42 | 1011.0 |
| 20260508141530 | 13 | 0 | 3.2 | 12.9 | 0.00 | 0.00 | 0.00 | 44 | 1011.1 |
| 20260508140030 | 13 | 0 | 3.2 | 9.7 | 0.00 | 0.00 | 0.00 | 50 | 1011.1 |
| 20260508134534 | 13 | 0 | 0.0 | 8.0 | 0.00 | 0.00 | 0.00 | 54 | 1011.2 |
| 20260508133029 | 12 | 0 | 0.0 | 4.8 | 0.00 | 0.00 | 0.00 | 58 | 1011.3 |
| 20260508131529 | 11 | 0 | 0.0 | 3.2 | 0.00 | 0.00 | 0.00 | 63 | 1011.4 |
| 20260508130027 | 10 | 0 | 0.0 | 6.4 | 0.00 | 0.00 | 0.00 | 67 | 1011.6 |
| 20260508124529 | 8 | 0 | 0.0 | 0.0 | 0.00 | 0.00 | 0.00 | 72 | 1011.7 |
| 20260508123028 | 6 | 0 | 0.0 | 4.8 | 0.00 | 0.00 | 0.00 | 78 | 1011.7 |
| 20260508121533 | 5 | 0 | 0.0 | 3.2 | 0.00 | 0.00 | 0.00 | 83 | 1011.5 |
| 20260508120028 | 3 | 0 | 0.0 | 0.0 | 0.00 | 0.00 | 0.00 | 89 | 1011.4 |
| 20260508114528 | 2 | 0 | 0.0 | 0.0 | 0.00 | 0.00 | 0.00 | 90 | 1011.2 |
| 20260508113028 | 1 | 0 | 0.0 | 0.0 | 0.00 | 0.00 | 0.00 | 87 | 1011.1 |
| 20260508111528 | 1 | 0 | 0.0 | 0.0 | 0.00 | 0.00 | 0.00 | 86 | 1011.1 |
| 20260508110033 | 1 | 0 | 0.0 | 0.0 | 0.00 | 0.00 | 0.00 | 86 | 1011.0 |
| 20260508104531 | 1 | 0 | 0.0 | 0.0 | 0.00 | 0.00 | 0.00 | 86 | 1010.8 |
| 20260508103041 | 1 | 0 | 0.0 | 0.0 | 0.00 | 0.00 | 0.00 | 85 | 1010.7 |
| 20260508101530 | 2 | 0 | 0.0 | 0.0 | 0.00 | 0.00 | 0.00 | 84 | 1010.8 |
| 20260508100032 | 2 | 0 | 0.0 | 0.0 | 0.00 | 0.00 | 0.00 | 84 | 1010.9 |
| 20260508094528 | 2 | 0 | 0.0 | 0.0 | 0.00 | 0.00 | 0.00 | 83 | 1010.9 |
| 20260508093036 | 2 | 0 | 0.0 | 0.0 | 0.00 | 0.00 | 0.00 | 83 | 1011.0 |
| 20260508091530 | 2 | 0 | 0.0 | 0.0 | 0.00 | 0.00 | 0.00 | 83 | 1011.0 |
| 20260508090037 | 2 | 0 | 0.0 | 0.0 | 0.00 | 0.00 | 0.00 | 81 | 1010.9 |
| 20260508084528 | 3 | 0 | 0.0 | 0.0 | 0.00 | 0.00 | 0.00 | 80 | 1011.0 |
| 20260508083030 | 3 | 0 | 0.0 | 0.0 | 0.00 | 0.00 | 0.00 | 79 | 1011.1 |
| 20260508081528 | 3 | 0 | 0.0 | 0.0 | 0.00 | 0.00 | 0.00 | 79 | 1011.1 |
| 20260508080029 | 3 | 0 | 0.0 | 0.0 | 0.00 | 0.00 | 0.00 | 78 | 1011.1 |
| 20260508074534 | 3 | 0 | 0.0 | 0.0 | 0.00 | 0.00 | 0.00 | 78 | 1011.2 |
| 20260508073030 | 4 | 0 | 0.0 | 0.0 | 0.00 | 0.00 | 0.00 | 79 | 1011.2 |
| 20260508071533 | 4 | 0 | 0.0 | 0.0 | 0.00 | 0.00 | 0.00 | 78 | 1011.4 |
| 20260508070030 | 3 | 0 | 0.0 | 0.0 | 0.00 | 0.00 | 0.00 | 77 | 1011.5 |